Regional Weather Roundup
Issued by NWS

Home | Current Version | Previous Version | Text Only | Print | Product List | Glossary On
Versions: 1 2 3 4 5 6 7 8 9 10 11 12 13 14 15 16 17 18 19 20 21 22 23 24 25 26 27 28 29 30 31 32 33 34 35 36 37 38 39 40 41 42 43 44 45 46 47 48 49 50
000
ASUS45 KBOI 271710
RWRID
WEATHER ROUNDUP FOR IDAHO
NATIONAL WEATHER SERVICE BOISE ID
1000 AM MST TUE JAN 27 2015

NOTE: "FAIR" INDICATES FEW OR NO CLOUDS BELOW 12000 FEET
WITH NO SIGNIFICANT WEATHER AND/OR OBSTRUCTIONS TO VISIBILITY

IDZ012-014-271800-
SOUTHWEST IDAHO


CITY           SKY/WX    TMP DP  RH WIND       PRES   REMARKS
BOISE          CLOUDY    30  28  93 CALM      30.12R FOG
CALDWELL       CLOUDY    30  25  80 E3        30.15R VSB 1/2
MOUNTAIN HOME  FOG       32  32 100 VRB1      30.11R VSB 1/4
$$

IDZ016-017-271800-
SOUTHCENTRAL IDAHO


CITY           SKY/WX    TMP DP  RH WIND       PRES   REMARKS
BURLEY         PTSUNNY   42  33  70 CALM      30.10S
JEROME         PTSUNNY   35  30  82 NE18      30.09F WCI  24
TWIN FALLS     CLOUDY    42  33  70 E3        30.09S
$$

IDZ019>023-271800-
SOUTHEAST IDAHO


CITY           SKY/WX    TMP DP  RH WIND       PRES   REMARKS
IDAHO FALLS    MOSUNNY   30  25  81 N6        30.17R WCI  24
POCATELLO      SUNNY     34  32  92 N6        30.15F WCI  29
REXBURG        PTSUNNY   32  20  61 E6        30.17R WCI  26
$$

IDZ006-010-011-018-031-032-271800-
CENTRAL IDAHO MOUNTAINS


CITY           SKY/WX    TMP DP  RH WIND       PRES   REMARKS
MCCALL         CLOUDY    24  21  88 CALM      30.08R
HAILEY         MOSUNNY   34  25  69 W9        30.15F WCI  26
STANLEY          N/A     13   8  81 CALM      30.16F
SALMON         CLOUDY   N/A N/A N/A CALM      30.18S VSB 1/2
CHALLIS        PTSUNNY   26  24  92 CALM      30.14S
$$

IDZ002-004-006-007-026-271800-
NORTHERN IDAHO


CITY           SKY/WX    TMP DP  RH WIND       PRES   REMARKS
LEWISTON       CLOUDY    41  35  79 E7        30.04R
LOWELL           N/A     37  33  85 N3        30.14R
COEUR D`ALENE  CLOUDY    30  28  93 NE8       30.01R VSB 1/4 WCI  23
MULLAN PASS    PTSUNNY   42  26  53 S7        30.02R
$$


USA.gov is the U.S. government's official web portal to all federal, state and local government web resources and services.